sat.trackr.live / text

‹ back to catalog

STARLINK-5799

NORAD 56002 · 2023-042S

PAYLOAD ACTIVE UNKNOWN

§ Identity

Operator
Country
US
Launch date
2023-03-24
Launch site
AFETR
Launch vehicle
Mass (kg)
RCS (m²)

Purposes: comms

External: N2YO · Heavens-Above · Gunter

§ Orbital elements

Epoch: 2026-05-24T21:12:31.709376Z

Period
94.27 min
Inclination
43.0062°
Eccentricity
0.0001547
Mean motion
15.27575443 rev/d
Perigee alt
482.0 km
Apogee alt
484.1 km
Semi-major
6,861.2 km
B*
3.6342e-6
RAAN
349.1838°
Arg perigee
264.6101°
Mean anomaly
95.4574°
Rev number
17,452

§ Raw data

STARLINK-57991 56002U 23042S   26144.88370034 -.00000162  00000+0  36342-5 0  99962 56002  43.0062 349.1838 0001547 264.6101  95.4574 15.27575443174529

JSON: /api/v1/satellites/56002 · /tle

For live sub-satellite position, see the globe view (requires WebGL).

§ Visibility from observer

Set your observer location to see the next 7 days of passes ≥ 10°. The values pass through the URL so the page stays shareable.

No JS? Fill the form by hand. The geolocation button needs JavaScript.